[[{"header":{"parameterUnit":"m.s-1","parameterCategory":2,"la1":30.2992,"la2":30.254,"lo1":-89.0895,"lo2":-89.0443,"dy":0.0025,"dx":0.0025,"nx":19,"ny":19,"refTime":"2026-04-24T03:00:00:Z","depth":"0","parameterNumber":2,"parameterNumberName":"U-component_of_CURRENTS"},"data":[0,0,0,0.1784,0.1788,0.1995,0.1996,0.1976,0.1975,0,0,0,0,0,0,0,0,0,0,0,0.169,0.1691,0.1783,0.1789,0.1995,0.1996,0.1976,0.1975,0,0,0,0,0,0,0,0,0,0,0,0.1689,0.169,0.1692,0.1789,0.1995,0.1996,0.1977,0.1891,0,0,0,0,0,0,0,0,0,0,0.1725,0.1699,0.169,0.1692,0.1791,0.1995,0.1996,0.1889,0.1896,0.1802,0,0.183,0,0.1906,0.1967,0.1967,0,0,0,0.1786,0.1695,0.1734,0.1692,0.1792,0.1994,0.1901,0.1895,0.1902,0.1809,0.1831,0.1834,0.1906,0.1967,0.1966,0.1951,0.1952,0,0,0.1775,0.1738,0.173,0.1738,0.1834,0.1895,0.1908,0.1902,0.1905,0.1831,0.1835,0.1905,0.1966,0.1965,0.1951,0.1952,0,0,0,0.1744,0.173,0.1777,0.1736,0.1799,0.1901,0.1916,0.1907,0.1918,0.1836,0.1905,0.1965,0.1964,0.195,0.1951,0.2012,0,0,0,0.1737,0.1713,0.1771,0.1753,0.1801,0.1901,0.1919,0.1918,0.1922,0.1905,0.1965,0.1963,0.1949,0.1951,0.2009,0.2023,0,0,0,0.1682,0.1708,0.1726,0.175,0.1843,0.1904,0.1918,0.1923,0.1962,0.1967,0.1963,0.1949,0.195,0.2006,0.2018,0.2072,0,0,0,0.1646,0.1695,0.1725,0.1783,0.1841,0.1955,0.192,0.2002,0.2017,0.1965,0.1949,0.1951,0.2005,0.2015,0.2069,0.21,0.2117,0,0,0.1691,0.17,0.173,0.1762,0.1877,0.1927,0.2017,0.202,0.2002,0.1927,0.193,0.201,0.2018,0.2071,0.2194,0.2208,0,0,0,0.1732,0.1754,0.1794,0.1859,0.1939,0.2016,0.2056,0.2064,0.2073,0.2021,0.2026,0.2029,0.2061,0.2074,0.2086,0.2096,0.1958,0.1958,0.1958,0.1728,0.1771,0.1836,0.1904,0.1974,0.207,0.2123,0.2131,0.2098,0.213,0.2092,0.2188,0.2204,0.2213,0.2224,0.2113,0.2113,0.2113,0.2113,0.1771,0.1792,0.1849,0.1927,0.1991,0.2051,0.2137,0.2158,0.2212,0.2172,0.22,0.2153,0.2229,0.2236,0.2117,0.2117,0.2116,0.2116,0.2115,0.1752,0.1771,0.1816,0.1905,0.1964,0.2037,0.2119,0.2188,0.2244,0.2294,0.2309,0.2307,0.2302,0.2313,0.2314,0.2314,0.2314,0.2314,0.2315,0.1705,0.1763,0.1814,0.1889,0.1924,0.1984,0.2122,0.221,0.2336,0.2375,0.2376,0.2347,0.2249,0.2228,0.232,0.2319,0.2318,0.2318,0.2317,0.17,0.173,0.1788,0.1833,0.1909,0.193,0.2077,0.2251,0.2376,0.2436,0.249,0.2426,0.2408,0.2398,0.238,0.2506,0.2506,0.2506,0.2506,0.1671,0.1701,0.1754,0.1815,0.1861,0.1911,0.1989,0.2168,0.2421,0.2532,0.2574,0.2538,0.253,0.2515,0.2503,0.2486,0.2636,0.2636,0.2636,0.1669,0.1675,0.1689,0.1758,0.1821,0.1858,0.1865,0.1989,0.2407,0.2641,0.2588,0.2582,0.2524,0.251,0.2478,0.2459,0.2427,0,0]},{"header":{"parameterUnit":"m.s-1","parameterCategory":2,"la1":30.2992,"la2":30.254,"lo1":-89.0895,"lo2":-89.0443,"dy":0.0025,"dx":0.0025,"nx":19,"ny":19,"refTime":"2026-04-24T03:00:00:Z","depth":"0","parameterNumber":3,"parameterNumberName":"V-component_of_CURRENTS"},"data":[0,0,0,0.0304,0.0305,0.032,0.032,0.0219,0.0217,0,0,0,0,0,0,0,0,0,0,0,0.0302,0.0302,0.0304,0.0305,0.032,0.032,0.0219,0.0217,0,0,0,0,0,0,0,0,0,0,0,0.0301,0.0302,0.0302,0.0305,0.032,0.032,0.0219,0.0236,0,0,0,0,0,0,0,0,0,0,0.0236,0.0247,0.0302,0.0302,0.0305,0.032,0.032,0.0238,0.0235,0.0179,0,0.0192,0,0.02,0.0208,0.0208,0,0,0,0.0299,0.025,0.026,0.0302,0.0305,0.032,0.0312,0.0238,0.0234,0.0174,0.019,0.0187,0.0198,0.0208,0.0207,0.0182,0.0183,0,0,0.0298,0.0292,0.0263,0.0258,0.0319,0.0311,0.0312,0.0237,0.0229,0.019,0.0186,0.0197,0.0207,0.0206,0.0181,0.0182,0,0,0,0.03,0.0291,0.0306,0.0262,0.0273,0.0312,0.0313,0.0233,0.024,0.0185,0.0196,0.0206,0.0204,0.0181,0.0182,0.0249,0,0,0,0.0299,0.0293,0.0305,0.03,0.0276,0.0268,0.0311,0.0246,0.0238,0.0196,0.0206,0.0203,0.018,0.0181,0.0246,0.032,0,0,0,0.0299,0.0292,0.0299,0.03,0.031,0.027,0.0273,0.0245,0.0244,0.0208,0.0203,0.0179,0.0181,0.0242,0.0314,0.0379,0,0,0,0.0284,0.0322,0.0299,0.0321,0.031,0.0321,0.0274,0.027,0.0247,0.0205,0.018,0.0182,0.0241,0.0309,0.0375,0.0442,0.0468,0,0,0.0331,0.0327,0.0336,0.0317,0.0357,0.0317,0.0333,0.0285,0.0254,0.0192,0.0193,0.0247,0.0313,0.0378,0.0543,0.0567,0,0,0,0.0349,0.0375,0.0376,0.0384,0.0368,0.038,0.0327,0.0319,0.031,0.025,0.0264,0.0305,0.0343,0.0374,0.0393,0.0295,0.019,0.019,0.0189,0.0469,0.0437,0.0469,0.0448,0.0443,0.0413,0.0427,0.0409,0.0335,0.0367,0.037,0.0487,0.0521,0.0536,0.0434,0.0358,0.0358,0.0358,0.0358,0.0558,0.0553,0.0539,0.0561,0.0541,0.0544,0.0518,0.0495,0.0533,0.0465,0.0496,0.0458,0.0561,0.0444,0.0363,0.0362,0.0362,0.0361,0.0361,0.0609,0.0596,0.0611,0.062,0.0668,0.0636,0.0714,0.0673,0.0631,0.0671,0.0692,0.0691,0.0581,0.0671,0.0671,0.0672,0.0672,0.0673,0.0673,0.0619,0.0632,0.0682,0.0696,0.0744,0.0795,0.0835,0.0874,0.0866,0.0818,0.0818,0.0627,0.0583,0.0562,0.0683,0.0681,0.068,0.0679,0.0678,0.0648,0.0649,0.0713,0.077,0.0883,0.0986,0.1009,0.1093,0.1111,0.1122,0.0863,0.0887,0.0883,0.0867,0.0853,0.1043,0.1043,0.1043,0.1043,0.0667,0.0672,0.0776,0.0889,0.0995,0.1087,0.1252,0.1294,0.1158,0.1056,0.0955,0.0863,0.0852,0.0838,0.0823,0.0805,0.0977,0.0977,0.0976,0.0715,0.0727,0.0824,0.0922,0.1063,0.1201,0.1363,0.1448,0.1196,0.0958,0.0809,0.0811,0.0652,0.0643,0.0595,0.0582,0.0543,0,0]}],[{"header":{"parameterUnit":"m.s-1","parameterCategory":2,"la1":30.2992,"la2":30.254,"lo1":-89.0895,"lo2":-89.0443,"dy":0.0025,"dx":0.0025,"nx":19,"ny":19,"refTime":"2026-04-24T03:00:00:Z","depth":"2","parameterNumber":2,"parameterNumberName":"U-component_of_CURRENTS"},"data":[0,0,0,-0.005,-0.005,-0.001,-0.001,0.0404,0.0409,0,0,0,0,0,0,0,0,0,0,0,0.0021,0.0023,-0.005,-0.005,-0.001,-0.001,0.0403,0.0409,0,0,0,0,0,0,0,0,0,0,0,0.002,0.0022,0.0025,-0.005,-0.001,-0.001,0.0402,0.0285,0,0,0,0,0,0,0,0,0,0,0.0203,0.0143,0.0022,0.0025,-0.005,-0.001,-0.001,0.0276,0.0293,0.0486,0,0.0545,0,0.0456,0.0443,0.0445,0,0,0,-0.0036,0.0128,0.0195,0.0025,-0.0049,-0.001,-0.0024,0.0283,0.0302,0.051,0.0549,0.0559,0.0463,0.0447,0.0449,0.0727,0.0726,0,0,-0.0038,-0.0028,0.0181,0.0209,0.0041,-0.0025,-0.0023,0.029,0.0323,0.055,0.0566,0.047,0.045,0.0454,0.0728,0.0727,0,0,0,-0.0054,-0.003,0.002,0.0197,0.0159,-0.0025,-0.0022,0.0308,0.0343,0.0569,0.0475,0.0453,0.046,0.0729,0.0728,0.086,0,0,0,-0.0054,-0.0041,0.0021,0.0017,0.0151,0.0162,-0.001,0.0323,0.0351,0.0473,0.0453,0.0465,0.073,0.0728,0.0859,0.0935,0,0,0,0.0004,-0.004,0.0002,0.002,0.0025,0.0153,0.02,0.0325,0.0296,0.0446,0.0466,0.0731,0.0729,0.0858,0.093,0.0965,0,0,0,-0.0041,-0.0018,0.0005,0.001,0.0025,0.0019,0.0196,0.0211,0.0315,0.0456,0.073,0.0728,0.0857,0.0928,0.0962,0.0861,0.0866,0,0,-0.0063,-0.0021,-0.0021,-0.0003,-0.0004,0.001,0.0065,0.0284,0.0361,0.066,0.0663,0.0859,0.093,0.0964,0.0745,0.0754,0,0,0,-0.0066,-0.0042,-0.0044,-0.0019,-0.0012,0.0078,0.0168,0.0278,0.0519,0.0412,0.078,0.0819,0.0839,0.0768,0.0773,0.0718,0.0719,0.0719,0.0719,-0.0073,-0.0058,-0.0035,0.001,0.004,0.0135,0.027,0.0448,0.0526,0.0611,0.087,0.0907,0.0828,0.0832,0.079,0.079,0.0791,0.0791,0.0791,-0.0064,0.0014,0.0036,0.0092,0.0217,0.0321,0.0532,0.0629,0.0896,0.0883,0.0896,0.0837,0.0847,0.08,0.0798,0.0797,0.0796,0.0795,0.0795,0.0005,0.0066,0.0088,0.0194,0.0383,0.0527,0.0741,0.0916,0.1028,0.1115,0.0988,0.0983,0.1039,0.1109,0.111,0.111,0.111,0.1111,0.1111,0.0152,0.0151,0.0166,0.0305,0.0418,0.0646,0.0888,0.0978,0.1068,0.1113,0.1111,0.1014,0.1003,0.1052,0.1118,0.1117,0.1116,0.1115,0.1115,0.0266,0.0203,0.0261,0.0309,0.0502,0.0609,0.0814,0.0944,0.1052,0.1059,0.1087,0.1086,0.1034,0.1024,0.1069,0.1137,0.1137,0.1137,0.1137,0.0309,0.0278,0.0331,0.0355,0.0461,0.0589,0.0665,0.0785,0.0918,0.0954,0.0962,0.0857,0.086,0.0792,0.0787,0.0824,0.0829,0.0828,0.0828,0.0282,0.0352,0.0387,0.0397,0.0455,0.0502,0.0558,0.0688,0.0791,0.0816,0.0911,0.1115,0.0976,0.0975,0.0878,0.0868,0.093,0,0]},{"header":{"parameterUnit":"m.s-1","parameterCategory":2,"la1":30.2992,"la2":30.254,"lo1":-89.0895,"lo2":-89.0443,"dy":0.0025,"dx":0.0025,"nx":19,"ny":19,"refTime":"2026-04-24T03:00:00:Z","depth":"2","parameterNumber":3,"parameterNumberName":"V-component_of_CURRENTS"},"data":[0,0,0,-0.0424,-0.0423,-0.0441,-0.0441,-0.0443,-0.0442,0,0,0,0,0,0,0,0,0,0,0,-0.0412,-0.0412,-0.0424,-0.0423,-0.044,-0.0441,-0.0443,-0.0442,0,0,0,0,0,0,0,0,0,0,0,-0.0413,-0.0412,-0.0411,-0.0423,-0.044,-0.0441,-0.0443,-0.0442,0,0,0,0,0,0,0,0,0,0,-0.0431,-0.0444,-0.0412,-0.0411,-0.0423,-0.044,-0.0441,-0.0443,-0.0442,-0.042,0,-0.0395,0,-0.0406,-0.0439,-0.0439,0,0,0,-0.0453,-0.0445,-0.0411,-0.0411,-0.0423,-0.044,-0.0441,-0.0443,-0.0442,-0.0419,-0.0395,-0.0396,-0.0406,-0.0439,-0.0439,-0.0446,-0.0447,0,0,-0.0452,-0.046,-0.0411,-0.041,-0.039,-0.044,-0.0441,-0.0443,-0.0448,-0.0395,-0.0396,-0.0406,-0.0439,-0.0438,-0.0446,-0.0446,0,0,0,-0.0429,-0.0459,-0.0428,-0.0409,-0.0406,-0.044,-0.0441,-0.045,-0.0427,-0.0396,-0.0406,-0.0438,-0.0438,-0.0445,-0.0446,-0.047,0,0,0,-0.043,-0.0442,-0.0426,-0.0438,-0.0405,-0.0439,-0.0448,-0.0427,-0.0428,-0.0406,-0.0438,-0.0437,-0.0445,-0.0446,-0.0468,-0.0402,0,0,0,-0.0418,-0.0444,-0.0425,-0.0437,-0.0427,-0.0438,-0.042,-0.0428,-0.0432,-0.0439,-0.0437,-0.0444,-0.0445,-0.0466,-0.0402,-0.0373,0,0,0,-0.0455,-0.0433,-0.0425,-0.0425,-0.0426,-0.0445,-0.0421,-0.0449,-0.046,-0.0438,-0.0445,-0.0446,-0.0466,-0.0402,-0.0373,-0.0344,-0.0339,0,0,-0.0448,-0.0433,-0.0436,-0.0429,-0.044,-0.0447,-0.0501,-0.0497,-0.0468,-0.0446,-0.0447,-0.0468,-0.0402,-0.0373,-0.0403,-0.0396,0,0,0,-0.0451,-0.0445,-0.0447,-0.0458,-0.0464,-0.0493,-0.0517,-0.0512,-0.0503,-0.047,-0.0483,-0.0438,-0.042,-0.0405,-0.04,-0.0451,-0.0451,-0.045,-0.045,-0.0448,-0.0464,-0.0478,-0.0495,-0.0522,-0.0544,-0.055,-0.0546,-0.0537,-0.0538,-0.0473,-0.0474,-0.0464,-0.0458,-0.0529,-0.0529,-0.0529,-0.0529,-0.0529,-0.0443,-0.0446,-0.0502,-0.0505,-0.0535,-0.0573,-0.0579,-0.0564,-0.0508,-0.0513,-0.0496,-0.0447,-0.0453,-0.0531,-0.0531,-0.0531,-0.053,-0.053,-0.053,-0.0447,-0.044,-0.0456,-0.0487,-0.0515,-0.0541,-0.05,-0.0477,-0.0472,-0.0445,-0.0402,-0.0402,-0.0433,-0.044,-0.044,-0.0439,-0.0439,-0.0439,-0.0439,-0.0399,-0.0427,-0.0433,-0.0456,-0.0462,-0.0436,-0.0402,-0.0372,-0.0353,-0.0363,-0.0364,-0.0442,-0.0445,-0.0426,-0.0433,-0.0434,-0.0435,-0.0435,-0.0435,-0.036,-0.0401,-0.0374,-0.0378,-0.0366,-0.0299,-0.0298,-0.0224,-0.0213,-0.0199,-0.0332,-0.0337,-0.0302,-0.0307,-0.0284,-0.0253,-0.0253,-0.0253,-0.0253,-0.0353,-0.0368,-0.0319,-0.0297,-0.0271,-0.0229,-0.0068,-0.0011,-0.0071,-0.0136,-0.0141,-0.0185,-0.0196,-0.0157,-0.0165,-0.014,-0.0071,-0.0071,-0.0071,-0.0353,-0.0313,-0.0265,-0.0235,-0.0217,-0.0131,0.0087,0.0225,0.0073,-0.0061,-0.0087,-0.0245,-0.0329,-0.0338,-0.0294,-0.0301,-0.0267,0,0]}],[{"header":{"parameterUnit":"m.s-1","parameterCategory":2,"la1":30.2992,"la2":30.254,"lo1":-89.0895,"lo2":-89.0443,"dy":0.0025,"dx":0.0025,"nx":19,"ny":19,"refTime":"2026-04-24T03:00:00:Z","depth":"4","parameterNumber":2,"parameterNumberName":"U-component_of_CURRENTS"},"data":[0,0,0,-0.0199,-0.0199,-0.0244,-0.0244,-0.0362,-0.0364,0,0,0,0,0,0,0,0,0,0,0,-0.0177,-0.0177,-0.0199,-0.0199,-0.0244,-0.0244,-0.0362,-0.0364,0,0,0,0,0,0,0,0,0,0,0,-0.0177,-0.0177,-0.0178,-0.02,-0.0244,-0.0244,-0.0362,-0.0314,0,0,0,0,0,0,0,0,0,0,-0.0264,-0.023,-0.0177,-0.0178,-0.02,-0.0244,-0.0244,-0.0311,-0.0317,-0.0358,0,-0.0357,0,-0.0366,-0.0372,-0.0373,0,0,0,-0.0204,-0.0225,-0.0241,-0.0178,-0.02,-0.0244,-0.0225,-0.0314,-0.0321,-0.0366,-0.0358,-0.0363,-0.0368,-0.0373,-0.0374,-0.0448,-0.0448,0,0,-0.0202,-0.0187,-0.0236,-0.0245,-0.0203,-0.0224,-0.0226,-0.0318,-0.032,-0.0359,-0.0365,-0.037,-0.0374,-0.0375,-0.0448,-0.0448,0,0,0,-0.0191,-0.0185,-0.0198,-0.024,-0.0245,-0.0225,-0.0228,-0.0316,-0.0321,-0.0367,-0.0371,-0.0375,-0.0377,-0.0448,-0.0448,-0.0374,0,0,0,-0.019,-0.0179,-0.0196,-0.0188,-0.0243,-0.0272,-0.0224,-0.0314,-0.0325,-0.037,-0.0375,-0.0378,-0.0449,-0.0448,-0.0377,-0.0354,0,0,0,-0.0177,-0.0178,-0.018,-0.0187,-0.0206,-0.0271,-0.028,-0.0316,-0.0328,-0.0373,-0.0378,-0.0449,-0.0448,-0.0379,-0.0358,-0.0339,0,0,0,-0.0165,-0.0171,-0.018,-0.0192,-0.0205,-0.0233,-0.028,-0.0311,-0.0345,-0.0376,-0.0449,-0.0448,-0.038,-0.036,-0.0341,-0.029,0,0,0,-0.0168,-0.017,-0.018,-0.019,-0.0207,-0.0228,-0.0243,-0.0306,-0.0353,-0.0425,-0.0426,-0.0376,-0.0358,-0.0339,-0.0266,0,0,0,0,-0.0179,-0.0185,-0.019,-0.0204,-0.0223,-0.0227,-0.0278,-0.0287,-0.033,-0.0371,-0.0388,-0.038,-0.0369,-0.0347,-0.0446,-0.0446,-0.0446,-0.0446,-0.0446,-0.017,-0.0186,-0.0198,-0.0213,-0.0223,-0.0236,-0.0235,-0.0264,-0.0311,-0.0306,-0.0327,-0.0275,-0.0248,-0.0333,-0.0333,-0.0333,-0.0332,-0.0332,-0.0332,-0.018,-0.0195,-0.0201,-0.0219,-0.0218,-0.0229,-0.022,-0.0224,-0.0225,-0.0264,-0.0257,-0.0281,-0.0325,-0.0326,-0.0327,-0.0328,-0.0329,-0.0329,-0.033,-0.0182,-0.0192,-0.02,-0.0218,-0.0218,-0.0218,-0.0182,-0.0175,-0.018,-0.0161,-0.0163,-0.0236,-0.0234,-0.0164,-0.0164,-0.0164,-0.0164,-0.0164,-0.0164,-0.0186,-0.0192,-0.0199,-0.0215,-0.0221,-0.0202,-0.0155,-0.0112,-0.0102,-0.0086,-0.0152,-0.022,-0.0225,-0.0226,-0.016,-0.0161,-0.0161,-0.0162,-0.0162,-0.0205,-0.0195,-0.0208,-0.0213,-0.0207,-0.0181,-0.0143,-0.0029,0.0012,0.005,-0.0049,-0.0055,-0.0084,-0.0093,-0.009,0.0018,0.0019,0.002,0,-0.0213,-0.021,-0.0211,-0.0203,-0.0179,-0.0161,-0.0058,0.001,0.0037,0.0012,-0.0014,-0.0133,-0.0136,-0.0177,-0.0183,-0.0184,0,0,0,-0.0223,-0.0221,-0.0217,-0.0197,-0.0165,-0.0071,-0.0023,0.0022,0.0,0.0128,0.0043,0.0037,-0.0036,-0.0151,-0.0211,-0.0218,-0.0222,0,0]},{"header":{"parameterUnit":"m.s-1","parameterCategory":2,"la1":30.2992,"la2":30.254,"lo1":-89.0895,"lo2":-89.0443,"dy":0.0025,"dx":0.0025,"nx":19,"ny":19,"refTime":"2026-04-24T03:00:00:Z","depth":"4","parameterNumber":3,"parameterNumberName":"V-component_of_CURRENTS"},"data":[0,0,0,-0.0071,-0.0071,-0.0078,-0.0078,-0.01,-0.01,0,0,0,0,0,0,0,0,0,0,0,-0.0079,-0.0079,-0.0071,-0.0071,-0.0078,-0.0078,-0.01,-0.01,0,0,0,0,0,0,0,0,0,0,0,-0.0079,-0.0079,-0.0079,-0.0071,-0.0078,-0.0078,-0.01,-0.0096,0,0,0,0,0,0,0,0,0,0,-0.0089,-0.0092,-0.0079,-0.0079,-0.007,-0.0078,-0.0078,-0.0096,-0.0096,-0.0094,0,-0.0089,0,-0.0081,-0.01,-0.01,0,0,0,-0.009,-0.0091,-0.0084,-0.0079,-0.007,-0.0078,-0.008,-0.0096,-0.0096,-0.0094,-0.0089,-0.0089,-0.0081,-0.01,-0.01,-0.0084,-0.0084,0,0,-0.009,-0.0092,-0.0083,-0.0084,-0.0064,-0.008,-0.008,-0.0096,-0.0099,-0.0089,-0.009,-0.0082,-0.01,-0.01,-0.0084,-0.0084,0,0,0,-0.0075,-0.0092,-0.0084,-0.0083,-0.0076,-0.0079,-0.008,-0.0099,-0.0093,-0.009,-0.0082,-0.01,-0.01,-0.0085,-0.0084,-0.0041,0,0,0,-0.0076,-0.0081,-0.0084,-0.0087,-0.0075,-0.0085,-0.0082,-0.0093,-0.0094,-0.0082,-0.01,-0.01,-0.0085,-0.0084,-0.0042,-0.0085,0,0,0,-0.008,-0.0082,-0.0078,-0.0087,-0.0079,-0.0085,-0.0082,-0.0093,-0.0088,-0.01,-0.01,-0.0085,-0.0084,-0.0044,-0.0085,-0.0108,0,0,0,-0.009,-0.0088,-0.0079,-0.0078,-0.0078,-0.0063,-0.0082,-0.0083,-0.0091,-0.01,-0.0085,-0.0084,-0.0044,-0.0085,-0.0108,-0.008,0,0,0,-0.0093,-0.0089,-0.0088,-0.0079,-0.0058,-0.0063,-0.0036,-0.0058,-0.0085,-0.0084,-0.0084,-0.0042,-0.0085,-0.0108,-0.0057,0,0,0,0,-0.0093,-0.0088,-0.0083,-0.0068,-0.0053,-0.0029,-0.0032,-0.0026,-0.0038,-0.0083,-0.0046,-0.0077,-0.0092,-0.0074,-0.0082,-0.0082,-0.0082,-0.0083,-0.0083,-0.0113,-0.0095,-0.0079,-0.0049,-0.0031,-0.0002,0.0005,0.001,-0.0003,0.0001,-0.0041,-0.0039,-0.0014,-0.001,-0.001,-0.001,-0.0009,-0.0009,-0.0009,-0.0113,-0.0103,-0.0065,-0.0045,-0.0005,0.0021,0.0048,0.0042,0.001,0.0007,-0.0007,-0.0029,-0.0005,-0.0006,-0.0007,-0.0007,-0.0007,-0.0008,-0.0008,-0.0135,-0.0119,-0.0105,-0.0055,-0.0013,0.0022,0.0039,0.0022,-0.0001,-0.002,-0.0041,-0.0044,-0.005,-0.0036,-0.0036,-0.0037,-0.0037,-0.0037,-0.0037,-0.0162,-0.0136,-0.0112,-0.0061,-0.0033,-0.0005,0.0,-0.0007,-0.0038,-0.0047,-0.005,-0.005,-0.0049,-0.0054,-0.0041,-0.004,-0.004,-0.0039,-0.0039,-0.0174,-0.0166,-0.013,-0.0104,-0.0036,-0.0013,-0.0004,-0.0013,-0.0044,-0.0059,-0.0047,-0.0046,-0.0081,-0.0081,-0.0088,-0.0084,-0.0084,-0.0084,0,-0.0188,-0.0177,-0.0136,-0.0097,-0.0054,-0.0016,-0.0015,-0.0014,-0.0053,-0.007,-0.0066,-0.0055,-0.0052,-0.0092,-0.0091,-0.01,0,0,0,-0.0183,-0.0174,-0.0152,-0.0111,-0.0063,-0.0032,-0.0015,-0.0026,-0.0042,-0.0024,-0.0075,-0.0077,0.001,-0.0053,-0.0106,-0.0104,-0.0117,0,0]}]]